| time (UTC) | temp C | wind direction | speed KPH | gust KPH | rain 1hr cm | rain 24hr cm | rain mn cm | humidity % | barometer mb |
| 20260506215013 | 25 | 191 | 16.1 | 29.0 | 0.00 | 0.00 | 0.00 | 40 | 1009.6 |
| 20260506214533 | 25 | 167 | 8.0 | 27.4 | 0.00 | 0.00 | 0.00 | 41 | 1009.6 |
| 20260506214017 | 25 | 182 | 9.7 | 27.4 | 0.00 | 0.00 | 0.00 | 40 | 1009.7 |
| 20260506213516 | 25 | 172 | 14.5 | 27.4 | 0.00 | 0.00 | 0.00 | 38 | 1009.7 |
| 20260506213036 | 25 | 156 | 12.9 | 27.4 | 0.00 | 0.00 | 0.00 | 40 | 1009.8 |
| 20260506212517 | 25 | 150 | 14.5 | 30.6 | 0.00 | 0.00 | 0.00 | 38 | 1009.9 |
| 20260506212015 | 25 | 165 | 9.7 | 30.6 | 0.00 | 0.00 | 0.00 | 42 | 1009.9 |
| 20260506211535 | 25 | 178 | 9.7 | 24.1 | 0.00 | 0.00 | 0.00 | 40 | 1009.9 |
| 20260506211017 | 24 | 175 | 9.7 | 20.9 | 0.00 | 0.00 | 0.00 | 40 | 1010.0 |
| 20260506210522 | 24 | 154 | 9.7 | 25.7 | 0.00 | 0.00 | 0.00 | 41 | 1010.1 |
| 20260506210036 | 25 | 139 | 12.9 | 27.4 | 0.00 | 0.00 | 0.00 | 39 | 1010.2 |
| 20260506205516 | 24 | 147 | 12.9 | 29.0 | 0.00 | 0.00 | 0.00 | 40 | 1010.2 |
| 20260506205019 | 25 | 161 | 16.1 | 30.6 | 0.00 | 0.00 | 0.00 | 39 | 1010.3 |
| 20260506204536 | 25 | 155 | 12.9 | 30.6 | 0.00 | 0.00 | 0.00 | 40 | 1010.2 |
| 20260506204016 | 24 | 188 | 11.3 | 25.7 | 0.00 | 0.00 | 0.00 | 39 | 1010.3 |
| 20260506203516 | 24 | 176 | 11.3 | 29.0 | 0.00 | 0.00 | 0.00 | 43 | 1010.3 |
| 20260506203031 | 24 | 170 | 12.9 | 29.0 | 0.00 | 0.00 | 0.00 | 41 | 1010.3 |
| 20260506202516 | 24 | 153 | 12.9 | 27.4 | 0.00 | 0.00 | 0.00 | 40 | 1010.4 |
| 20260506202015 | 23 | 162 | 8.0 | 27.4 | 0.00 | 0.00 | 0.00 | 41 | 1010.3 |
| 20260506201534 | 23 | 143 | 14.5 | 27.4 | 0.00 | 0.00 | 0.00 | 38 | 1010.6 |
| 20260506201017 | 23 | 153 | 11.3 | 27.4 | 0.00 | 0.00 | 0.00 | 40 | 1010.6 |
| 20260506200516 | 23 | 142 | 17.7 | 27.4 | 0.00 | 0.00 | 0.00 | 39 | 1010.8 |
| 20260506200041 | 23 | 158 | 6.4 | 24.1 | 0.00 | 0.00 | 0.00 | 39 | 1010.8 |
| 20260506195516 | 23 | 175 | 11.3 | 24.1 | 0.00 | 0.00 | 0.00 | 39 | 1010.9 |
| 20260506195018 | 23 | 180 | 8.0 | 24.1 | 0.00 | 0.00 | 0.00 | 38 | 1010.9 |
| 20260506194534 | 23 | 157 | 14.5 | 24.1 | 0.00 | 0.00 | 0.00 | 40 | 1010.9 |
| 20260506194016 | 23 | 182 | 14.5 | 22.5 | 0.00 | 0.00 | 0.00 | 39 | 1011.0 |
| 20260506193517 | 23 | 152 | 11.3 | 27.4 | 0.00 | 0.00 | 0.00 | 38 | 1011.0 |
| 20260506193033 | 23 | 172 | 12.9 | 27.4 | 0.00 | 0.00 | 0.00 | 39 | 1011.1 |
| 20260506192516 | 22 | 206 | 12.9 | 22.5 | 0.00 | 0.00 | 0.00 | 40 | 1011.0 |
| 20260506192016 | 23 | 183 | 14.5 | 25.7 | 0.00 | 0.00 | 0.00 | 38 | 1011.2 |
| 20260506191534 | 23 | 200 | 12.9 | 25.7 | 0.00 | 0.00 | 0.00 | 40 | 1011.3 |
| 20260506191017 | 23 | 155 | 9.7 | 22.5 | 0.00 | 0.00 | 0.00 | 39 | 1011.4 |
| 20260506190517 | 22 | 149 | 12.9 | 22.5 | 0.00 | 0.00 | 0.00 | 38 | 1011.4 |
| 20260506190033 | 22 | 196 | 11.3 | 22.5 | 0.00 | 0.00 | 0.00 | 39 | 1011.4 |
| 20260506185516 | 22 | 233 | 11.3 | 24.1 | 0.00 | 0.00 | 0.00 | 37 | 1011.5 |
| 20260506185016 | 22 | 149 | 11.3 | 24.1 | 0.00 | 0.00 | 0.00 | 38 | 1011.5 |
| 20260506184534 | 22 | 169 | 6.4 | 19.3 | 0.00 | 0.00 | 0.00 | 39 | 1011.6 |
| 20260506184020 | 22 | 184 | 9.7 | 22.5 | 0.00 | 0.00 | 0.00 | 39 | 1011.6 |
| 20260506183516 | 22 | 152 | 9.7 | 22.5 | 0.00 | 0.00 | 0.00 | 40 | 1011.7 |
| 20260506183037 | 22 | 184 | 11.3 | 22.5 | 0.00 | 0.00 | 0.00 | 38 | 1011.7 |
| 20260506182515 | 22 | 188 | 11.3 | 22.5 | 0.00 | 0.00 | 0.00 | 39 | 1011.8 |
| 20260506182016 | 22 | 178 | 8.0 | 17.7 | 0.00 | 0.00 | 0.00 | 41 | 1011.9 |
| 20260506181534 | 21 | 150 | 8.0 | 17.7 | 0.00 | 0.00 | 0.00 | 40 | 1012.0 |
| 20260506181016 | 21 | 259 | 6.4 | 14.5 | 0.00 | 0.00 | 0.00 | 41 | 1012.0 |
| 20260506180516 | 21 | 201 | 6.4 | 16.1 | 0.00 | 0.00 | 0.00 | 41 | 1012.1 |
| 20260506180043 | 20 | 160 | 8.0 | 16.1 | 0.00 | 0.00 | 0.00 | 43 | 1012.1 |
| 20260506175517 | 20 | 173 | 8.0 | 14.5 | 0.00 | 0.00 | 0.00 | 48 | 1012.2 |
| 20260506175016 | 19 | 186 | 3.2 | 12.9 | 0.00 | 0.00 | 0.00 | 55 | 1012.1 |
| 20260506174533 | 19 | 115 | 6.4 | 12.9 | 0.00 | 0.00 | 0.00 | 53 | 1012.3 |
| 20260506174016 | 19 | 109 | 3.2 | 11.3 | 0.00 | 0.00 | 0.00 | 60 | 1012.3 |
| 20260506173517 | 18 | 91 | 4.8 | 11.3 | 0.00 | 0.00 | 0.00 | 54 | 1012.5 |
| 20260506173038 | 18 | 107 | 4.8 | 11.3 | 0.00 | 0.00 | 0.00 | 57 | 1012.6 |
| 20260506172517 | 18 | 110 | 4.8 | 11.3 | 0.00 | 0.00 | 0.00 | 56 | 1012.6 |
| 20260506172016 | 18 | 121 | 3.2 | 11.3 | 0.00 | 0.00 | 0.00 | 55 | 1012.7 |
| 20260506171531 | 18 | 111 | 3.2 | 6.4 | 0.00 | 0.00 | 0.00 | 59 | 1012.7 |
| 20260506171019 | 17 | 93 | 3.2 | 6.4 | 0.00 | 0.00 | 0.00 | 54 | 1012.8 |
| 20260506170518 | 17 | 118 | 3.2 | 4.8 | 0.00 | 0.00 | 0.00 | 55 | 1012.8 |
| 20260506170036 | 17 | 0 | 0.0 | 4.8 | 0.00 | 0.00 | 0.00 | 55 | 1012.9 |
| 20260506165516 | 17 | 123 | 0.0 | 4.8 | 0.00 | 0.00 | 0.00 | 57 | 1013.0 |
| 20260506165016 | 16 | 85 | 1.6 | 6.4 | 0.00 | 0.00 | 0.00 | 57 | 1013.1 |
| 20260506164543 | 16 | 0 | 1.6 | 6.4 | 0.00 | 0.00 | 0.00 | 60 | 1013.1 |
| 20260506164016 | 16 | 331 | 3.2 | 6.4 | 0.00 | 0.00 | 0.00 | 59 | 1013.2 |
| 20260506163516 | 16 | 101 | 1.6 | 3.2 | 0.00 | 0.00 | 0.00 | 59 | 1013.3 |
| 20260506163035 | 16 | 101 | 1.6 | 3.2 | 0.00 | 0.00 | 0.00 | 61 | 1013.4 |
| 20260506162516 | 16 | 101 | 1.6 | 3.2 | 0.00 | 0.00 | 0.00 | 60 | 1013.4 |
| 20260506162015 | 15 | 101 | 0.0 | 3.2 | 0.00 | 0.00 | 0.00 | 61 | 1013.5 |
| 20260506161534 | 15 | 0 | 0.0 | 3.2 | 0.00 | 0.00 | 0.00 | 64 | 1013.6 |
| 20260506161017 | 15 | 101 | 0.0 | 4.8 | 0.00 | 0.00 | 0.00 | 65 | 1013.7 |
| 20260506160513 | 14 | 101 | 1.6 | 4.8 | 0.00 | 0.00 | 0.00 | 65 | 1013.8 |
| 20260506160032 | 14 | 100 | 1.6 | 4.8 | 0.00 | 0.00 | 0.00 | 67 | 1013.9 |
| 20260506155520 | 14 | 0 | 0.0 | 4.8 | 0.00 | 0.00 | 0.00 | 69 | 1013.9 |
| 20260506155015 | 13 | 117 | 0.0 | 4.8 | 0.00 | 0.00 | 0.00 | 70 | 1013.9 |
| 20260506154538 | 13 | 117 | 1.6 | 4.8 | 0.00 | 0.00 | 0.00 | 71 | 1013.9 |
| 20260506154015 | 13 | 106 | 0.0 | 4.8 | 0.00 | 0.00 | 0.00 | 70 | 1013.9 |
| 20260506153515 | 12 | 0 | 0.0 | 4.8 | 0.00 | 0.00 | 0.00 | 72 | 1014.0 |
| 20260506153036 | 12 | 130 | 1.6 | 4.8 | 0.00 | 0.00 | 0.00 | 71 | 1013.9 |
| 20260506152515 | 12 | 142 | 1.6 | 4.8 | 0.00 | 0.00 | 0.00 | 74 | 1013.8 |
| 20260506152013 | 12 | 0 | 1.6 | 4.8 | 0.00 | 0.00 | 0.00 | 74 | 1013.9 |
| 20260506151533 | 11 | 142 | 1.6 | 4.8 | 0.00 | 0.00 | 0.00 | 73 | 1013.9 |
| 20260506151014 | 11 | 123 | 1.6 | 4.8 | 0.00 | 0.00 | 0.00 | 75 | 1013.9 |
| 20260506150516 | 11 | 123 | 1.6 | 4.8 | 0.00 | 0.00 | 0.00 | 77 | 1014.0 |
| 20260506150033 | 11 | 108 | 1.6 | 4.8 | 0.00 | 0.00 | 0.00 | 78 | 1013.9 |
| 20260506145519 | 11 | 108 | 1.6 | 4.8 | 0.00 | 0.00 | 0.00 | 80 | 1014.0 |
| 20260506145018 | 10 | 110 | 1.6 | 4.8 | 0.00 | 0.00 | 0.00 | 81 | 1013.9 |
| 20260506144533 | 10 | 0 | 1.6 | 4.8 | 0.00 | 0.00 | 0.00 | 81 | 1013.9 |
| 20260506144016 | 10 | 105 | 1.6 | 3.2 | 0.00 | 0.00 | 0.00 | 82 | 1013.9 |
| 20260506143516 | 10 | 0 | 0.0 | 3.2 | 0.00 | 0.00 | 0.00 | 83 | 1014.0 |
| 20260506143037 | 9 | 0 | 0.0 | 3.2 | 0.00 | 0.00 | 0.00 | 84 | 1014.0 |
| 20260506142515 | 8 | 105 | 1.6 | 3.2 | 0.00 | 0.00 | 0.00 | 86 | 1014.1 |
| 20260506142015 | 8 | 105 | 0.0 | 3.2 | 0.00 | 0.00 | 0.00 | 88 | 1014.1 |
| 20260506141537 | 8 | 0 | 0.0 | 3.2 | 0.00 | 0.00 | 0.00 | 89 | 1014.0 |
| 20260506141015 | 7 | 0 | 0.0 | 3.2 | 0.00 | 0.00 | 0.00 | 88 | 1014.1 |
| 20260506140515 | 7 | 63 | 0.0 | 3.2 | 0.00 | 0.00 | 0.00 | 88 | 1014.1 |
| 20260506140039 | 7 | 63 | 1.6 | 3.2 | 0.00 | 0.00 | 0.00 | 89 | 1014.1 |
| 20260506135514 | 7 | 0 | 0.0 | 1.6 | 0.00 | 0.00 | 0.00 | 91 | 1014.1 |
| 20260506135015 | 6 | 0 | 0.0 | 3.2 | 0.00 | 0.00 | 0.00 | 91 | 1014.1 |
| 20260506134534 | 6 | 150 | 0.0 | 3.2 | 0.00 | 0.00 | 0.00 | 91 | 1014.0 |
| 20260506134017 | 6 | 150 | 0.0 | 4.8 | 0.00 | 0.00 | 0.00 | 92 | 1014.0 |
| 20260506133515 | 5 | 150 | 1.6 | 4.8 | 0.00 | 0.00 | 0.00 | 92 | 1013.9 |
| 20260506133032 | 5 | 150 | 1.6 | 4.8 | 0.00 | 0.00 | 0.00 | 92 | 1014.0 |
| 20260506132515 | 5 | 150 | 1.6 | 4.8 | 0.00 | 0.00 | 0.00 | 92 | 1013.9 |
| 20260506132016 | 5 | 150 | 1.6 | 4.8 | 0.00 | 0.00 | 0.00 | 93 | 1013.8 |
| 20260506131537 | 4 | 150 | 1.6 | 3.2 | 0.00 | 0.00 | 0.00 | 93 | 1013.7 |
| 20260506131015 | 4 | 150 | 1.6 | 3.2 | 0.00 | 0.00 | 0.00 | 93 | 1013.8 |
| 20260506130521 | 3 | 150 | 1.6 | 3.2 | 0.00 | 0.00 | 0.00 | 92 | 1013.8 |
| 20260506130032 | 3 | 150 | 0.0 | 3.2 | 0.00 | 0.00 | 0.00 | 92 | 1013.7 |
| 20260506125516 | 3 | 150 | 0.0 | 3.2 | 0.00 | 0.00 | 0.00 | 92 | 1013.7 |
| 20260506125020 | 3 | 0 | 0.0 | 3.2 | 0.00 | 0.00 | 0.00 | 92 | 1013.7 |
| 20260506124537 | 3 | 150 | 1.6 | 3.2 | 0.00 | 0.00 | 0.00 | 91 | 1013.6 |
| 20260506124016 | 3 | 0 | 0.0 | 3.2 | 0.00 | 0.00 | 0.00 | 91 | 1013.6 |
| 20260506123516 | 3 | 150 | 1.6 | 3.2 | 0.00 | 0.00 | 0.00 | 92 | 1013.5 |
| 20260506123041 | 3 | 150 | 0.0 | 3.2 | 0.00 | 0.00 | 0.00 | 92 | 1013.5 |
| 20260506122517 | 3 | 150 | 1.6 | 3.2 | 0.00 | 0.00 | 0.00 | 92 | 1013.5 |
| 20260506122015 | 3 | 150 | 0.0 | 3.2 | 0.00 | 0.00 | 0.00 | 92 | 1013.4 |
| 20260506121534 | 3 | 0 | 0.0 | 3.2 | 0.00 | 0.00 | 0.00 | 92 | 1013.4 |
| 20260506121017 | 3 | 0 | 0.0 | 0.0 | 0.00 | 0.00 | 0.00 | 90 | 1013.3 |
| 20260506120517 | 3 | 0 | 0.0 | 0.0 | 0.00 | 0.00 | 0.00 | 91 | 1013.2 |
| 20260506120059 | 3 | 0 | 0.0 | 1.6 | 0.00 | 0.00 | 0.00 | 91 | 1013.2 |
| 20260506115517 | 3 | 0 | 0.0 | 1.6 | 0.00 | 0.00 | 0.00 | 90 | 1013.1 |
| 20260506115014 | 3 | 0 | 0.0 | 3.2 | 0.00 | 0.00 | 0.00 | 90 | 1013.1 |
| 20260506114531 | 4 | 0 | 0.0 | 3.2 | 0.00 | 0.00 | 0.00 | 89 | 1013.1 |
| 20260506114016 | 5 | 0 | 0.0 | 3.2 | 0.00 | 0.00 | 0.00 | 89 | 1013.1 |
| 20260506113513 | 5 | 0 | 0.0 | 3.2 | 0.00 | 0.00 | 0.00 | 91 | 1013.0 |
| 20260506113032 | 4 | 150 | 0.0 | 3.2 | 0.00 | 0.00 | 0.00 | 90 | 1013.1 |
| 20260506112517 | 4 | 0 | 0.0 | 3.2 | 0.00 | 0.00 | 0.00 | 90 | 1013.0 |
| 20260506112015 | 4 | 0 | 1.6 | 3.2 | 0.00 | 0.00 | 0.00 | 90 | 1013.0 |
| 20260506111539 | 5 | 150 | 0.0 | 3.2 | 0.00 | 0.00 | 0.00 | 88 | 1013.1 |
| 20260506111016 | 5 | 0 | 0.0 | 3.2 | 0.00 | 0.00 | 0.00 | 89 | 1012.9 |
| 20260506110516 | 5 | 0 | 0.0 | 3.2 | 0.00 | 0.00 | 0.00 | 89 | 1012.9 |
| 20260506110034 | 5 | 150 | 0.0 | 3.2 | 0.00 | 0.00 | 0.00 | 89 | 1012.9 |
| 20260506105516 | 5 | 0 | 0.0 | 0.0 | 0.00 | 0.00 | 0.00 | 88 | 1012.8 |
| 20260506105015 | 5 | 0 | 0.0 | 1.6 | 0.00 | 0.00 | 0.00 | 88 | 1012.8 |
| 20260506104534 | 5 | 0 | 0.0 | 3.2 | 0.00 | 0.00 | 0.00 | 88 | 1012.7 |
| 20260506104016 | 5 | 0 | 0.0 | 4.8 | 0.00 | 0.00 | 0.00 | 87 | 1012.7 |
| 20260506103517 | 6 | 150 | 1.6 | 4.8 | 0.00 | 0.00 | 0.00 | 88 | 1012.7 |
| 20260506103036 | 6 | 150 | 1.6 | 4.8 | 0.00 | 0.00 | 0.00 | 90 | 1012.7 |
| 20260506102516 | 5 | 150 | 1.6 | 4.8 | 0.00 | 0.00 | 0.00 | 89 | 1012.7 |
| 20260506102017 | 5 | 150 | 1.6 | 4.8 | 0.00 | 0.00 | 0.00 | 88 | 1012.7 |
| 20260506101533 | 6 | 150 | 3.2 | 4.8 | 0.00 | 0.00 | 0.00 | 89 | 1012.8 |
| 20260506101016 | 6 | 150 | 3.2 | 4.8 | 0.00 | 0.00 | 0.00 | 89 | 1012.7 |
| 20260506100515 | 6 | 150 | 3.2 | 4.8 | 0.00 | 0.00 | 0.00 | 89 | 1012.7 |
| 20260506100034 | 5 | 150 | 1.6 | 4.8 | 0.00 | 0.00 | 0.00 | 89 | 1012.8 |
| 20260506095517 | 5 | 150 | 1.6 | 4.8 | 0.00 | 0.00 | 0.00 | 90 | 1012.7 |
| 20260506095015 | 5 | 150 | 3.2 | 4.8 | 0.00 | 0.00 | 0.00 | 90 | 1012.7 |
| 20260506094536 | 5 | 150 | 0.0 | 3.2 | 0.00 | 0.00 | 0.00 | 89 | 1012.7 |
| 20260506094015 | 5 | 0 | 0.0 | 3.2 | 0.00 | 0.00 | 0.00 | 89 | 1012.7 |
| 20260506093513 | 5 | 0 | 0.0 | 1.6 | 0.00 | 0.00 | 0.00 | 89 | 1012.6 |
| 20260506093044 | 5 | 0 | 0.0 | 1.6 | 0.00 | 0.00 | 0.00 | 89 | 1012.7 |
| 20260506092515 | 5 | 0 | 0.0 | 0.0 | 0.00 | 0.00 | 0.00 | 88 | 1012.5 |
| 20260506092015 | 5 | 0 | 0.0 | 0.0 | 0.00 | 0.00 | 0.00 | 86 | 1012.7 |
| 20260506091532 | 6 | 0 | 0.0 | 0.0 | 0.00 | 0.00 | 0.00 | 87 | 1012.6 |
| 20260506091015 | 6 | 0 | 0.0 | 1.6 | 0.00 | 0.00 | 0.00 | 87 | 1012.6 |
| 20260506090516 | 6 | 0 | 0.0 | 1.6 | 0.00 | 0.00 | 0.00 | 87 | 1012.5 |
| 20260506090032 | 6 | 0 | 0.0 | 1.6 | 0.00 | 0.00 | 0.00 | 86 | 1012.5 |
| 20260506085515 | 6 | 0 | 0.0 | 3.2 | 0.00 | 0.00 | 0.00 | 85 | 1012.5 |
| 20260506085015 | 6 | 0 | 0.0 | 3.2 | 0.00 | 0.00 | 0.00 | 86 | 1012.5 |
| 20260506084533 | 6 | 150 | 0.0 | 3.2 | 0.00 | 0.00 | 0.00 | 88 | 1012.4 |
| 20260506084015 | 6 | 150 | 0.0 | 4.8 | 0.00 | 0.00 | 0.00 | 86 | 1012.4 |
| 20260506083516 | 6 | 0 | 1.6 | 4.8 | 0.00 | 0.00 | 0.00 | 85 | 1012.4 |
| 20260506083041 | 7 | 150 | 0.0 | 3.2 | 0.00 | 0.00 | 0.00 | 84 | 1012.4 |
| 20260506082515 | 7 | 0 | 0.0 | 3.2 | 0.00 | 0.00 | 0.00 | 84 | 1012.4 |
| 20260506082014 | 7 | 150 | 0.0 | 3.2 | 0.00 | 0.00 | 0.00 | 85 | 1012.3 |
| 20260506081533 | 7 | 0 | 0.0 | 3.2 | 0.00 | 0.00 | 0.00 | 86 | 1012.3 |
| 20260506081015 | 7 | 0 | 0.0 | 3.2 | 0.00 | 0.00 | 0.00 | 85 | 1012.4 |
| 20260506080515 | 7 | 150 | 0.0 | 1.6 | 0.00 | 0.00 | 0.00 | 85 | 1012.4 |
| 20260506073514 | 7 | 0 | 0.0 | 3.2 | 0.00 | 0.00 | 0.00 | 84 | 1012.2 |
| 20260506073034 | 7 | 150 | 0.0 | 4.8 | 0.00 | 0.00 | 0.00 | 83 | 1012.2 |
| 20260506072516 | 7 | 150 | 0.0 | 4.8 | 0.00 | 0.00 | 0.00 | 83 | 1012.2 |
| 20260506072016 | 7 | 150 | 1.6 | 6.4 | 0.00 | 0.00 | 0.00 | 81 | 1012.1 |
| 20260506071537 | 8 | 144 | 0.0 | 6.4 | 0.00 | 0.00 | 0.00 | 80 | 1012.1 |
| 20260506071015 | 8 | 182 | 3.2 | 6.4 | 0.00 | 0.00 | 0.00 | 82 | 1012.0 |
| 20260506070515 | 8 | 0 | 0.0 | 4.8 | 0.00 | 0.00 | 0.00 | 81 | 1012.0 |
| 20260506062516 | 9 | 0 | 0.0 | 3.2 | 0.00 | 0.00 | 0.00 | 78 | 1011.5 |
| 20260506062017 | 10 | 164 | 0.0 | 3.2 | 0.00 | 0.00 | 0.00 | 75 | 1011.4 |
| 20260506061536 | 10 | 0 | 0.0 | 3.2 | 0.00 | 0.00 | 0.00 | 77 | 1011.4 |
| 20260506061019 | 10 | 164 | 1.6 | 3.2 | 0.00 | 0.00 | 0.00 | 76 | 1011.3 |
| 20260506060517 | 10 | 164 | 0.0 | 3.2 | 0.00 | 0.00 | 0.00 | 77 | 1011.2 |
| 20260506051016 | 12 | 157 | 1.6 | 11.3 | 0.00 | 0.00 | 0.00 | 69 | 1011.1 |
| 20260506050516 | 12 | 163 | 3.2 | 11.3 | 0.00 | 0.00 | 0.00 | 71 | 1011.1 |
| 20260506045016 | 11 | 0 | 1.6 | 4.8 | 0.00 | 0.00 | 0.00 | 72 | 1010.9 |
| 20260506044549 | 12 | 109 | 1.6 | 4.8 | 0.00 | 0.00 | 0.00 | 69 | 1010.9 |
| 20260506044016 | 12 | 109 | 0.0 | 3.2 | 0.00 | 0.00 | 0.00 | 69 | 1010.8 |
| 20260506043519 | 12 | 0 | 0.0 | 4.8 | 0.00 | 0.00 | 0.00 | 68 | 1010.8 |
| 20260506043033 | 13 | 109 | 1.6 | 4.8 | 0.00 | 0.00 | 0.00 | 66 | 1010.6 |
| 20260506042517 | 13 | 0 | 0.0 | 1.6 | 0.00 | 0.00 | 0.00 | 65 | 1010.5 |
| 20260506042015 | 14 | 0 | 0.0 | 3.2 | 0.00 | 0.00 | 0.00 | 64 | 1010.4 |
| 20260506041553 | 14 | 0 | 0.0 | 3.2 | 0.00 | 0.00 | 0.00 | 63 | 1010.3 |
| 20260506040042 | 15 | 0 | 0.0 | 4.8 | 0.00 | 0.00 | 0.00 | 60 | 1010.1 |
| 20260506035516 | 15 | 153 | 0.0 | 4.8 | 0.00 | 0.00 | 0.00 | 59 | 1010.1 |
| 20260506035016 | 15 | 153 | 1.6 | 4.8 | 0.00 | 0.00 | 0.00 | 58 | 1010.0 |
| 20260506034535 | 15 | 148 | 1.6 | 6.4 | 0.00 | 0.00 | 0.00 | 61 | 1009.9 |
| 20260506034014 | 15 | 111 | 3.2 | 6.4 | 0.00 | 0.00 | 0.00 | 61 | 1009.8 |
| 20260506033515 | 16 | 117 | 3.2 | 6.4 | 0.00 | 0.00 | 0.00 | 60 | 1009.8 |
| 20260506033035 | 16 | 126 | 1.6 | 6.4 | 0.00 | 0.00 | 0.00 | 60 | 1009.8 |
| 20260506032516 | 16 | 132 | 3.2 | 6.4 | 0.00 | 0.00 | 0.00 | 60 | 1009.7 |
| 20260506032017 | 17 | 142 | 0.0 | 4.8 | 0.00 | 0.00 | 0.00 | 58 | 1009.6 |
| 20260506031539 | 17 | 144 | 3.2 | 4.8 | 0.00 | 0.00 | 0.00 | 55 | 1009.5 |
| 20260506031016 | 18 | 144 | 3.2 | 6.4 | 0.00 | 0.00 | 0.00 | 51 | 1009.6 |
| 20260506030515 | 19 | 132 | 1.6 | 6.4 | 0.00 | 0.00 | 0.00 | 51 | 1009.5 |
| 20260506030036 | 20 | 140 | 1.6 | 6.4 | 0.00 | 0.00 | 0.00 | 46 | 1009.5 |
| 20260506025658 | 21 | 153 | 3.2 | 6.4 | 0.00 | 0.00 | 0.00 | 42 | 1009.4 |
| 20260506025016 | 22 | 161 | 1.6 | 8.0 | 0.00 | 0.00 | 0.00 | 39 | 1009.4 |
| 20260506024535 | 22 | 155 | 3.2 | 11.3 | 0.00 | 0.00 | 0.00 | 37 | 1009.3 |
| 20260506024015 | 22 | 172 | 3.2 | 12.9 | 0.00 | 0.00 | 0.00 | 37 | 1009.3 |
| 20260506023517 | 22 | 168 | 4.8 | 12.9 | 0.00 | 0.00 | 0.00 | 36 | 1009.2 |
| 20260506023038 | 23 | 193 | 6.4 | 11.3 | 0.00 | 0.00 | 0.00 | 36 | 1009.1 |
| 20260506022515 | 23 | 202 | 3.2 | 8.0 | 0.00 | 0.00 | 0.00 | 36 | 1009.1 |
| 20260506022014 | 23 | 173 | 1.6 | 4.8 | 0.00 | 0.00 | 0.00 | 43 | 1009.1 |
| 20260506021535 | 24 | 173 | 1.6 | 4.8 | 0.00 | 0.00 | 0.00 | 34 | 1009.0 |
| 20260506021016 | 25 | 166 | 0.0 | 4.8 | 0.00 | 0.00 | 0.00 | 33 | 1008.9 |
| 20260506020516 | 25 | 189 | 0.0 | 3.2 | 0.00 | 0.00 | 0.00 | 32 | 1009.0 |
| 20260506020034 | 25 | 205 | 0.0 | 6.4 | 0.00 | 0.00 | 0.00 | 31 | 1009.1 |
| 20260506015519 | 25 | 226 | 1.6 | 6.4 | 0.00 | 0.00 | 0.00 | 30 | 1009.0 |
| 20260506015015 | 25 | 0 | 1.6 | 6.4 | 0.00 | 0.00 | 0.00 | 30 | 1009.0 |
| 20260506014534 | 25 | 0 | 0.0 | 6.4 | 0.00 | 0.00 | 0.00 | 31 | 1009.0 |
| 20260506014015 | 25 | 202 | 3.2 | 6.4 | 0.00 | 0.00 | 0.00 | 31 | 1009.0 |
| 20260506013515 | 25 | 185 | 1.6 | 9.7 | 0.00 | 0.00 | 0.00 | 30 | 1009.0 |
| 20260506013035 | 25 | 188 | 3.2 | 9.7 | 0.00 | 0.00 | 0.00 | 29 | 1009.0 |
| 20260506012515 | 25 | 219 | 3.2 | 9.7 | 0.00 | 0.00 | 0.00 | 29 | 1009.0 |
| 20260506012017 | 25 | 193 | 3.2 | 8.0 | 0.00 | 0.00 | 0.00 | 30 | 1009.0 |
| 20260506011532 | 26 | 167 | 3.2 | 8.0 | 0.00 | 0.00 | 0.00 | 29 | 1008.9 |
| 20260506011017 | 26 | 179 | 3.2 | 8.0 | 0.00 | 0.00 | 0.00 | 30 | 1009.0 |
| 20260506010515 | 26 | 0 | 1.6 | 8.0 | 0.00 | 0.00 | 0.00 | 31 | 1009.0 |
| 20260506010036 | 26 | 208 | 3.2 | 8.0 | 0.00 | 0.00 | 0.00 | 28 | 1009.0 |
| 20260506005516 | 26 | 190 | 3.2 | 8.0 | 0.00 | 0.00 | 0.00 | 29 | 1009.0 |
| 20260506005018 | 26 | 0 | 1.6 | 8.0 | 0.00 | 0.00 | 0.00 | 30 | 1009.1 |
| 20260506004555 | 26 | 178 | 3.2 | 11.3 | 0.00 | 0.00 | 0.00 | 28 | 1009.0 |
| 20260506004016 | 26 | 240 | 4.8 | 11.3 | 0.00 | 0.00 | 0.00 | 27 | 1009.1 |
| 20260506003517 | 26 | 174 | 1.6 | 12.9 | 0.00 | 0.00 | 0.00 | 27 | 1009.2 |
| 20260506003032 | 26 | 0 | 0.0 | 12.9 | 0.00 | 0.00 | 0.00 | 27 | 1009.1 |
| 20260506002515 | 26 | 258 | 6.4 | 11.3 | 0.00 | 0.00 | 0.00 | 29 | 1009.2 |
| 20260506002018 | 26 | 171 | 3.2 | 11.3 | 0.00 | 0.00 | 0.00 | 29 | 1009.1 |
| 20260506001535 | 26 | 160 | 6.4 | 11.3 | 0.00 | 0.00 | 0.00 | 27 | 1009.2 |
| 20260506001016 | 26 | 149 | 6.4 | 11.3 | 0.00 | 0.00 | 0.00 | 26 | 1009.2 |
| 20260506000514 | 26 | 185 | 1.6 | 9.7 | 0.00 | 0.00 | 0.00 | 28 | 1009.4 |
| 20260506000034 | 26 | 223 | 4.8 | 11.3 | 0.00 | 0.00 | 0.00 | 28 | 1009.5 |
| 20260505235516 | 25 | 215 | 4.8 | 14.5 | 0.00 | 0.00 | 0.00 | 28 | 1009.5 |
| 20260505235019 | 25 | 244 | 6.4 | 14.5 | 0.00 | 0.00 | 0.00 | 26 | 1009.5 |
| 20260505234604 | 26 | 171 | 9.7 | 16.1 | 0.00 | 0.00 | 0.00 | 26 | 1009.6 |
| 20260505234015 | 26 | 173 | 3.2 | 16.1 | 0.00 | 0.00 | 0.00 | 26 | 1009.5 |
| 20260505233517 | 26 | 256 | 4.8 | 14.5 | 0.00 | 0.00 | 0.00 | 26 | 1009.7 |
| 20260505233037 | 26 | 176 | 6.4 | 14.5 | 0.00 | 0.00 | 0.00 | 28 | 1009.7 |
| 20260505232516 | 26 | 109 | 3.2 | 9.7 | 0.00 | 0.00 | 0.00 | 30 | 1009.7 |
| 20260505232016 | 25 | 218 | 4.8 | 14.5 | 0.00 | 0.00 | 0.00 | 28 | 1009.7 |
| 20260505231537 | 25 | 0 | 3.2 | 16.1 | 0.00 | 0.00 | 0.00 | 27 | 1009.9 |
| 20260505231016 | 25 | 150 | 4.8 | 16.1 | 0.00 | 0.00 | 0.00 | 28 | 1009.9 |
| 20260505230518 | 25 | 238 | 4.8 | 11.3 | 0.00 | 0.00 | 0.00 | 27 | 1010.0 |
| 20260505230032 | 25 | 168 | 6.4 | 11.3 | 0.00 | 0.00 | 0.00 | 26 | 1010.1 |
| 20260505225516 | 25 | 174 | 3.2 | 14.5 | 0.00 | 0.00 | 0.00 | 27 | 1010.2 |
| 20260505225014 | 25 | 100 | 6.4 | 14.5 | 0.00 | 0.00 | 0.00 | 26 | 1010.2 |
| 20260505224534 | 25 | 164 | 3.2 | 9.7 | 0.00 | 0.00 | 0.00 | 25 | 1010.4 |
| 20260505224016 | 25 | 302 | 3.2 | 22.5 | 0.00 | 0.00 | 0.00 | 27 | 1010.3 |
| 20260505223518 | 25 | 252 | 4.8 | 22.5 | 0.00 | 0.00 | 0.00 | 25 | 1010.6 |
| 20260505223031 | 25 | 323 | 4.8 | 20.9 | 0.00 | 0.00 | 0.00 | 27 | 1010.6 |
| 20260505222515 | 25 | 252 | 3.2 | 17.7 | 0.00 | 0.00 | 0.00 | 28 | 1010.7 |
| 20260505222017 | 25 | 325 | 11.3 | 17.7 | 0.00 | 0.00 | 0.00 | 27 | 1010.8 |
| 20260505221532 | 25 | 300 | 8.0 | 22.5 | 0.00 | 0.00 | 0.00 | 28 | 1010.8 |
| 20260505221016 | 25 | 329 | 12.9 | 24.1 | 0.00 | 0.00 | 0.00 | 29 | 1010.9 |
| 20260505220516 | 25 | 352 | 12.9 | 24.1 | 0.00 | 0.00 | 0.00 | 29 | 1010.8 |
| 20260505220037 | 25 | 296 | 4.8 | 20.9 | 0.00 | 0.00 | 0.00 | 32 | 1010.9 |
| 20260505215518 | 24 | 323 | 12.9 | 20.9 | 0.00 | 0.00 | 0.00 | 31 | 1011.0 |